When you browse on this site, cookies collect data to enhance your experience and personalize the content and advertising you see.
Visit our Privacy Policy to learn more. By continuing to use the site, you agree to this use of cookies and data.
  • Em Portugal
  • Lista de países
  • Para 7 dias
  • Temperatura da água
  • Mapas de satélite
  • Mapa do tempo
  • Widgets de tempo
  • user-avatar
    Iniciar Sessão

    Previsão horária em Waczos

    Hoje, 23 Julho, Terça-feira

    Tempo Temperatura Precipitação Vento Pressão Humidade
    00:00 +16°C° 0 mm 1 m/s 752 mmHg 78%
    01:00 +16°C° 0 mm 1 m/s 752 mmHg 80%
    02:00 +16°C° 0 mm 1 m/s 752 mmHg 81%
    03:00 +16°C° 0 mm 1 m/s 752 mmHg 83%
    04:00 +15°C° 0 mm 1 m/s 752 mmHg 85%
    05:00 +16°C° 0.2 mm 1 m/s 752 mmHg 88%
    06:00 +16°C° 0.2 mm 1 m/s 752 mmHg 91%
    07:00 +16°C° 0.2 mm 1 m/s 752 mmHg 93%
    08:00 +16°C° 0 mm 1 m/s 752 mmHg 93%
    09:00 +18°C° 0 mm 1 m/s 752 mmHg 92%
    10:00 +18°C° 0 mm 1 m/s 752 mmHg 91%
    11:00 +18°C° 0 mm 2 m/s 752 mmHg 91%
    12:00 +18°C° 0 mm 2 m/s 752 mmHg 92%
    13:00 +19°C° 0 mm 2 m/s 752 mmHg 92%
    14:00 +20°C° 0 mm 2 m/s 752 mmHg 87%
    15:00 +21°C° 0 mm 3 m/s 752 mmHg 82%
    16:00 +22°C° 0 mm 3 m/s 752 mmHg 77%
    17:00 +21°C° 0 mm 3 m/s 752 mmHg 78%
    18:00 +21°C° 0 mm 3 m/s 751 mmHg 80%
    19:00 +21°C° 0 mm 2 m/s 751 mmHg 81%
    20:00 +20°C° 0 mm 2 m/s 751 mmHg 85%
    21:00 +19°C° 0 mm 2 m/s 751 mmHg 90%
    22:00 +18°C° 0 mm 2 m/s 751 mmHg 94%
    23:00 +18°C° 0 mm 2 m/s 751 mmHg 94%

    Amanhã, 24 Julho, Quarta-feira

    Tempo Temperatura Precipitação Vento Pressão Humidade
    00:00 +18°C° 0 mm 2 m/s 751 mmHg 95%
    01:00 +18°C° 0 mm 2 m/s 751 mmHg 95%
    02:00 +17°C° 0 mm 2 m/s 751 mmHg 96%
    03:00 +18°C° 0 mm 1 m/s 751 mmHg 97%
    04:00 +18°C° 0 mm 1 m/s 750 mmHg 97%
    05:00 +19°C° 0 mm 1 m/s 751 mmHg 91%
    06:00 +21°C° 0 mm 1 m/s 751 mmHg 86%
    07:00 +23°C° 0 mm 2 m/s 751 mmHg 80%
    08:00 +24°C° 0 mm 2 m/s 751 mmHg 73%
    09:00 +26°C° 0 mm 2 m/s 751 mmHg 66%
    10:00 +27°C° 0 mm 2 m/s 751 mmHg 58%
    11:00 +28°C° 0.1 mm 2 m/s 751 mmHg 56%
    12:00 +28°C° 0.1 mm 2 m/s 751 mmHg 54%
    13:00 +29°C° 0.1 mm 2 m/s 751 mmHg 52%
    14:00 +29°C° 0.2 mm 2 m/s 751 mmHg 54%
    15:00 +29°C° 0.2 mm 3 m/s 751 mmHg 57%
    16:00 +28°C° 0.2 mm 3 m/s 751 mmHg 59%
    17:00 +27°C° 0.1 mm 3 m/s 751 mmHg 65%
    18:00 +26°C° 0.1 mm 2 m/s 751 mmHg 71%
    19:00 +24°C° 0.1 mm 2 m/s 751 mmHg 77%
    20:00 +23°C° 0 mm 2 m/s 751 mmHg 83%
    21:00 +21°C° 0 mm 1 m/s 751 mmHg 88%
    22:00 +20°C° 0 mm 1 m/s 752 mmHg 93%
    23:00 +19°C° 0 mm 1 m/s 752 mmHg 93%

    Depois de amanhã, 25 Julho, Quinta-feira

    Tempo Temperatura Precipitação Vento Pressão Humidade
    00:00 +19°C° 0 mm 1 m/s 751 mmHg 93%
    01:00 +18°C° 0 mm 1 m/s 751 mmHg 93%
    02:00 +18°C° 0 mm 1 m/s 751 mmHg 94%
    03:00 +18°C° 0 mm 1 m/s 751 mmHg 94%
    04:00 +16°C° 0 mm 0 m/s 752 mmHg 95%
    05:00 +19°C° 0 mm 1 m/s 752 mmHg 89%
    06:00 +21°C° 0 mm 1 m/s 752 mmHg 83%
    07:00 +22°C° 0 mm 1 m/s 752 mmHg 77%
    08:00 +24°C° 0 mm 1 m/s 752 mmHg 68%
    09:00 +26°C° 0 mm 2 m/s 752 mmHg 60%
    10:00 +27°C° 0 mm 2 m/s 753 mmHg 51%
    11:00 +28°C° 0 mm 2 m/s 752 mmHg 47%
    12:00 +29°C° 0 mm 2 m/s 752 mmHg 43%
    13:00 +30°C° 0 mm 3 m/s 752 mmHg 39%
    14:00 +30°C° 0 mm 3 m/s 752 mmHg 40%
    15:00 +29°C° 0 mm 3 m/s 752 mmHg 41%
    16:00 +29°C° 0 mm 4 m/s 752 mmHg 42%
    17:00 +27°C° 0 mm 3 m/s 752 mmHg 48%
    18:00 +26°C° 0 mm 3 m/s 752 mmHg 54%
    19:00 +24°C° 0 mm 3 m/s 751 mmHg 59%
    20:00 +21°C° 0 mm 2 m/s 751 mmHg 65%
    21:00 +20°C° 0 mm 2 m/s 752 mmHg 71%
    22:00 +18°C° 0 mm 2 m/s 752 mmHg 76%
    23:00 +17°C° 0 mm 2 m/s 752 mmHg 80%

    26 Julho, Sexta-feira

    Tempo Temperatura Precipitação Vento Pressão Humidade
    00:00 +17°C° 0 mm 2 m/s 751 mmHg 83%
    01:00 +16°C° 0 mm 1 m/s 751 mmHg 87%
    02:00 +16°C° 0 mm 2 m/s 751 mmHg 90%
    03:00 +16°C° 0 mm 2 m/s 751 mmHg 93%
    04:00 +15°C° 0 mm 2 m/s 751 mmHg 96%
    05:00 +17°C° 0 mm 2 m/s 751 mmHg 87%
    06:00 +19°C° 0 mm 3 m/s 751 mmHg 77%
    07:00 +21°C° 0 mm 3 m/s 751 mmHg 68%
    08:00 +22°C° 0 mm 4 m/s 751 mmHg 61%
    09:00 +25°C° 0 mm 4 m/s 751 mmHg 54%
    10:00 +26°C° 0 mm 4 m/s 751 mmHg 47%
    11:00 +27°C° 0 mm 4 m/s 751 mmHg 46%
    12:00 +27°C° 0 mm 4 m/s 750 mmHg 44%
    13:00 +28°C° 0 mm 4 m/s 750 mmHg 43%
    14:00 +28°C° 0 mm 4 m/s 750 mmHg 44%
    15:00 +27°C° 0 mm 4 m/s 750 mmHg 45%
    16:00 +27°C° 0 mm 5 m/s 749 mmHg 46%
    17:00 +25°C° 0 mm 4 m/s 749 mmHg 53%
    18:00 +23°C° 0 mm 4 m/s 749 mmHg 59%
    19:00 +21°C° 0 mm 4 m/s 749 mmHg 66%
    20:00 +20°C° 0 mm 3 m/s 749 mmHg 73%
    21:00 +18°C° 0 mm 3 m/s 749 mmHg 80%
    22:00 +17°C° 0 mm 2 m/s 749 mmHg 87%
    23:00 +17°C° 0 mm 2 m/s 749 mmHg 89%

    27 Julho, Sábado

    Tempo Temperatura Precipitação Vento Pressão Humidade
    00:00 +16°C° 0 mm 2 m/s 749 mmHg 92%
    01:00 +16°C° 0 mm 2 m/s 749 mmHg 95%
    02:00 +16°C° 0 mm 2 m/s 748 mmHg 96%
    03:00 +16°C° 0 mm 2 m/s 748 mmHg 96%
    04:00 +16°C° 0 mm 2 m/s 748 mmHg 97%
    05:00 +18°C° 0 mm 2 m/s 748 mmHg 89%
    06:00 +20°C° 0 mm 3 m/s 748 mmHg 82%
    07:00 +21°C° 0 mm 4 m/s 749 mmHg 75%
    08:00 +23°C° 0 mm 4 m/s 749 mmHg 69%
    09:00 +25°C° 0 mm 4 m/s 749 mmHg 63%
    10:00 +27°C° 0 mm 5 m/s 749 mmHg 57%
    11:00 +28°C° 0 mm 5 m/s 748 mmHg 53%
    12:00 +29°C° 0 mm 5 m/s 748 mmHg 50%
    13:00 +30°C° 0 mm 5 m/s 748 mmHg 46%
    14:00 +29°C° 0 mm 5 m/s 747 mmHg 48%
    15:00 +29°C° 0 mm 5 m/s 747 mmHg 50%
    16:00 +29°C° 0 mm 5 m/s 747 mmHg 52%
    17:00 +27°C° 0 mm 4 m/s 747 mmHg 59%
    18:00 +26°C° 0 mm 4 m/s 747 mmHg 65%
    19:00 +25°C° 0 mm 4 m/s 747 mmHg 72%
    20:00 +24°C° 0 mm 3 m/s 747 mmHg 77%
    21:00 +22°C° 0 mm 3 m/s 747 mmHg 81%
    22:00 +20°C° 0 mm 3 m/s 747 mmHg 86%
    23:00 +20°C° 0 mm 3 m/s 747 mmHg 88%

    28 Julho, Domingo

    Tempo Temperatura Precipitação Vento Pressão Humidade
    00:00 +20°C° 0 mm 3 m/s 747 mmHg 90%
    01:00 +20°C° 0 mm 2 m/s 747 mmHg 92%
    02:00 +19°C° 0 mm 2 m/s 747 mmHg 93%
    03:00 +19°C° 0 mm 2 m/s 747 mmHg 94%
    04:00 +19°C° 0 mm 3 m/s 747 mmHg 95%
    05:00 +20°C° 0 mm 3 m/s 747 mmHg 87%
    06:00 +22°C° 0 mm 3 m/s 747 mmHg 79%
    07:00 +25°C° 0 mm 3 m/s 747 mmHg 71%
    08:00 +26°C° 0 mm 4 m/s 747 mmHg 63%
    09:00 +28°C° 0 mm 5 m/s 747 mmHg 56%
    10:00 +29°C° 0 mm 5 m/s 748 mmHg 48%
    11:00 +30°C° 0 mm 5 m/s 748 mmHg 46%
    12:00 +32°C° 0 mm 5 m/s 747 mmHg 44%
    13:00 +32°C° 0 mm 5 m/s 747 mmHg 42%
    14:00 +32°C° 0 mm 5 m/s 747 mmHg 45%
    15:00 +30°C° 0 mm 5 m/s 747 mmHg 47%
    16:00 +30°C° 0 mm 4 m/s 747 mmHg 49%
    17:00 +28°C° 0 mm 4 m/s 747 mmHg 54%
    18:00 +27°C° 0 mm 4 m/s 747 mmHg 59%
    19:00 +26°C° 0 mm 3 m/s 747 mmHg 64%
    20:00 +24°C° 0 mm 3 m/s 747 mmHg 70%
    21:00 +22°C° 0 mm 3 m/s 747 mmHg 75%
    22:00 +20°C° 0 mm 3 m/s 748 mmHg 81%
    23:00 +20°C° 0 mm 2 m/s 748 mmHg 81%
    Mostrar mais